Theta_e
335 336 338 340 342 339 342 341 340 339 336 335 336 337 338 339 339 340 339 340 341 340 340 341 340 340 340 341 339 341 340 341 341 341 339 338 339 339 339 339 340 340 338 337 335 333 331 330 328 325 323 323
331 334 336 338 339 337 339 340 340 338 336 334 337 337 337 336 336 336 339 340 341 340 341 341 341 340 339 339 338 340 340 339 339 339 339 339 339 339 338 339 339 338 336 335 333 332 331 328 326 323 321 320
329 331 333 335 335 335 338 338 337 336 335 334 335 335 333 331 329 329 332 335 336 338 337 336 336 338 339 338 339 339 338 339 338 337 338 338 338 338 338 337 337 335 334 333 332 331 329 325 323 321 320 318
327 329 329 332 333 334 335 334 334 333 333 329 327 328 328 326 325 326 327 326 331 332 335 333 331 334 340 338 335 336 337 338 337 337 337 337 338 339 338 337 335 334 334 333 332 329 326 322 319 319 317 316
327 328 328 328 328 329 330 330 330 330 327 323 322 321 321 321 325 323 324 323 325 322 326 324 325 332 337 336 334 335 337 337 338 337 338 338 339 339 337 333 332 329 332 332 330 327 324 319 320 318 317 316
327 326 328 327 327 327 327 326 325 324 322 318 321 320 322 323 320 321 321 323 321 321 323 323 324 328 334 336 333 333 337 337 337 338 338 338 339 338 334 329 329 327 326 327 326 323 319 320 319 318 317 316
326 325 324 324 325 325 325 323 321 322 322 322 322 322 323 320 321 318 321 322 322 321 321 324 323 327 332 334 332 331 334 335 336 337 337 338 337 335 330 326 325 325 325 322 317 316 320 319 319 318 316 315
326 327 325 324 323 324 323 323 322 322 322 322 323 324 323 320 319 317 320 319 317 317 322 321 321 324 325 326 326 324 328 331 333 335 334 333 332 327 323 323 323 322 321 319 320 319 319 319 318 317 316 315
325 325 325 323 322 322 321 320 320 321 321 321 322 322 322 321 317 316 320 322 322 320 319 321 322 325 325 325 325 323 324 324 323 323 323 321 318 318 320 319 318 320 319 318 318 318 318 318 317 316 316 315
324 324 324 322 322 321 320 320 319 320 320 320 321 319 320 318 319 317 319 320 321 321 321 323 324 326 324 322 322 322 320 319 317 317 317 317 317 317 319 318 317 318 317 317 317 317 316 317 316 316 314 314
323 324 324 322 321 321 321 321 321 320 320 319 318 319 318 319 318 318 317 320 321 321 322 322 324 325 323 321 321 320 319 316 314 314 314 314 315 316 316 316 316 316 317 317 317 316 316 316 315 315 314 314
324 324 323 322 319 320 319 320 321 321 320 320 319 318 320 320 321 320 319 321 321 323 321 322 324 323 322 320 320 320 318 315 313 313 313 314 314 314 314 314 314 314 315 315 316 315 315 315 315 314 313 314
324 323 323 321 321 322 319 321 321 321 321 320 319 319 320 320 321 321 321 321 320 322 323 322 323 322 320 319 319 319 317 315 313 313 313 314 314 314 313 313 313 313 313 314 314 314 313 313 313 313 313 313
323 323 322 322 322 322 319 321 321 320 320 321 320 320 321 320 321 321 321 322 321 322 321 320 321 319 319 318 316 317 316 314 314 313 313 313 314 313 313 313 312 313 312 313 313 313 313 312 312 312 313 312
324 323 323 321 322 323 321 322 321 321 321 320 320 320 321 321 319 319 317 319 319 320 320 320 320 318 316 316 315 314 315 315 314 313 313 314 314 314 313 312 312 313 312 311 312 311 312 310 310 310 310 311
324 323 324 322 323 322 322 322 321 321 320 318 320 320 321 322 321 318 319 318 318 318 315 318 320 317 316 314 314 314 312 313 313 313 312 312 313 312 312 311 311 312 312 311 310 310 309 309 309 309 309 310
324 324 324 323 323 322 322 321 321 320 320 320 319 319 320 320 319 317 319 318 317 315 317 318 318 317 316 315 314 313 312 311 311 312 311 311 311 311 311 311 310 310 311 309 308 309 309 309 307 308 309 309
324 324 324 322 323 322 322 321 321 319 320 319 319 319 318 317 316 314 316 318 317 317 316 316 317 316 313 311 311 312 312 312 310 311 310 309 311 310 310 310 309 309 309 308 307 308 306 307 306 306 307 306
324 323 323 323 323 322 322 321 321 321 320 320 320 319 319 318 317 315 316 317 317 315 316 316 315 315 313 311 312 312 310 309 308 310 310 309 310 308 309 308 308 309 308 307 307 307 307 306 304 305 305 305
324 323 323 323 319 322 322 321 321 320 320 320 319 319 319 319 316 316 316 317 317 316 316 315 312 312 311 311 312 312 310 310 307 307 308 309 310 308 306 307 305 307 307 307 307 305 306 305 306 305 304 305
324 323 323 322 321 322 321 321 321 321 320 320 319 319 319 318 315 316 316 317 317 316 314 314 312 308 310 310 311 310 310 310 309 308 308 307 308 310 306 307 306 305 307 305 305 304 304 304 305 305 305 305
323 323 323 322 321 319 320 320 321 321 320 319 319 319 318 316 315 315 315 315 315 314 313 313 312 309 308 310 310 310 309 309 308 308 308 305 305 308 307 306 306 305 304 304 303 302 302 301 302 302 303 303
323 323 323 322 321 320 320 320 320 320 319 319 319 318 318 315 314 314 315 314 313 313 311 311 310 309 309 309 308 307 307 306 307 307 307 307 304 305 308 307 306 304 303 302 301 299 298 298 298 299 299 301
321 321 319 319 319 318 318 319 317 319 319 319 318 317 316 315 315 314 313 313 313 312 310 309 306 308 308 308 308 308 306 306 306 307 305 305 305 303 303 304 304 303 301 298 297 295 294 293 296 298 298 299
320 318 318 319 318 317 318 318 318 318 319 318 318 317 317 315 314 313 313 312 312 312 308 308 307 307 307 308 309 308 308 307 306 307 306 304 304 303 302 299 302 301 301 298 294 293 292 291 290 293 296 296
321 321 320 319 318 318 318 317 316 316 318 318 317 317 317 315 314 313 313 311 312 311 309 308 306 306 306 307 307 308 307 306 303 305 305 304 302 302 303 299 300 301 303 297 296 294 291 291 291 292 290 293
321 322 321 320 319 319 318 319 318 318 318 317 317 317 317 315 315 314 313 312 311 311 310 309 307 306 306 307 306 306 305 304 303 305 305 305 304 300 297 297 298 301 304 294 295 294 293 289 291 294 292 289
322 322 322 321 320 320 319 317 316 318 318 317 317 316 316 316 315 313 312 312 311 311 310 309 308 308 307 307 306 307 305 303 303 304 305 305 304 302 299 297 297 297 298 298 297 293 291 288 291 289 292 289
320 321 320 321 320 319 318 317 316 316 315 316 315 315 315 315 315 313 312 312 311 310 310 309 309 308 307 307 306 307 305 303 303 303 306 306 303 303 302 298 296 293 293 300 302 292 289 288 289 291 289 290
320 318 319 318 316 314 314 313 312 311 311 313 313 314 316 315 315 313 312 312 311 310 309 309 309 307 306 306 306 307 306 305 303 303 304 305 305 304 303 301 299 295 290 296 297 296 293 293 291 290 287 293
317 320 319 319 317 316 315 314 314 315 316 315 316 316 315 314 314 314 312 310 311 310 309 309 308 307 306 306 305 304 305 303 302 303 304 304 305 306 304 302 300 298 293 291 291 291 286 286 285 292 291 293
Wind_Speed
11 12 12 12 8 3 7 12 13 13 14 11 12 12 11 11 10 11 14 16 16 12 11 10 11 12 16 15 12 17 15 17 17 21 24 21 22 22 20 21 20 18 16 17 13 12 11 13 12 11 8 6
11 13 15 13 8 6 9 11 13 13 13 10 14 12 11 9 9 9 11 13 13 12 10 11 11 14 13 17 12 18 22 23 22 23 21 20 21 22 21 21 21 19 18 16 12 10 12 12 12 11 9 6
8 15 14 11 8 8 10 11 11 11 14 14 9 7 5 6 8 8 10 14 15 15 13 11 10 12 16 15 15 21 20 20 21 22 22 23 22 19 18 19 20 21 20 16 14 14 11 15 13 11 7 5
7 10 12 10 9 10 12 12 12 12 11 10 9 8 8 9 7 6 5 7 11 17 16 14 9 11 13 15 12 12 19 22 22 20 21 21 22 22 23 24 23 20 18 19 17 14 12 14 13 7 6 5
9 10 11 9 11 13 13 12 12 11 10 2 3 5 8 7 5 4 5 3 1 2 3 7 13 12 14 18 13 11 16 18 18 20 21 21 22 21 21 20 21 19 17 16 15 15 14 14 8 7 6 6
3 5 8 7 8 8 10 11 10 8 9 7 5 5 6 5 3 3 3 5 4 1 1 5 12 14 14 18 16 11 12 13 14 17 19 20 19 17 18 18 11 12 14 16 15 16 14 9 7 6 7 6
5 4 5 6 8 8 9 8 7 8 10 7 7 6 6 5 4 3 5 4 5 6 8 6 10 14 14 16 17 13 12 12 13 15 17 19 19 19 19 11 8 9 9 9 14 13 10 7 7 7 7 5
6 6 7 7 7 7 7 7 7 7 8 8 7 8 7 6 4 3 5 7 9 9 6 3 4 8 12 14 17 10 5 10 11 12 14 15 16 13 7 7 7 8 8 7 5 5 6 7 7 7 6 6
7 7 7 6 6 6 6 6 6 7 7 6 7 6 6 7 4 3 6 6 5 4 4 5 7 6 5 6 9 12 5 6 8 8 8 8 7 6 7 8 7 8 8 6 6 6 6 7 6 6 5 5
7 7 8 7 7 7 6 7 6 6 6 6 6 5 5 5 6 6 5 7 7 6 1 8 8 8 6 6 7 8 7 5 6 7 7 7 7 6 7 8 7 7 8 8 6 6 5 6 6 6 5 4
8 7 8 8 7 8 7 6 7 6 6 6 6 6 5 7 6 6 6 8 8 6 7 7 6 9 9 8 8 8 8 7 6 7 6 5 6 6 6 7 6 7 7 8 8 7 6 6 6 6 5 4
9 7 8 9 8 8 7 8 8 7 7 6 7 6 6 7 7 7 6 6 8 10 9 8 6 6 7 8 7 8 8 8 6 7 7 6 6 7 6 7 6 6 6 7 7 7 6 6 6 6 5 5
9 8 8 9 9 9 8 8 9 8 7 7 6 6 6 5 6 6 7 7 7 7 11 8 8 8 7 7 7 8 9 9 7 7 8 8 7 6 7 7 7 6 6 6 6 8 7 6 6 6 5 5
10 10 10 10 10 9 9 8 8 8 7 7 7 7 6 6 7 7 7 7 7 9 9 7 7 7 7 7 4 5 10 8 8 7 8 8 8 8 8 7 6 7 6 6 6 7 7 6 5 5 6 6
11 11 11 10 10 9 10 9 7 8 8 7 7 8 8 7 6 7 6 6 8 7 9 9 8 8 7 7 6 4 7 9 9 8 7 8 8 8 8 7 6 7 7 6 6 6 8 6 6 5 6 6
12 12 11 11 10 10 10 9 8 7 7 7 8 9 9 9 8 6 7 7 6 8 4 4 8 8 8 7 6 7 6 6 9 9 8 7 7 7 8 7 6 6 8 6 6 6 7 6 6 5 5 6
11 11 10 11 11 10 10 10 9 9 8 7 6 7 9 9 9 7 8 8 9 7 9 7 8 8 7 8 6 7 8 7 8 8 9 7 8 8 7 7 6 5 7 8 6 6 6 7 6 5 6 6
10 11 10 9 10 10 10 9 9 9 9 8 7 7 7 6 6 8 7 8 9 9 8 7 9 8 7 5 6 8 7 9 7 9 9 8 9 7 8 9 7 7 7 6 6 6 6 7 6 6 6 5
14 12 11 11 10 10 11 10 10 9 9 9 8 8 9 8 10 9 8 6 9 8 6 8 8 10 8 8 8 8 6 7 6 8 11 9 9 8 7 7 6 7 8 7 7 6 6 7 6 6 6 6
13 12 12 12 11 10 11 10 10 9 10 9 8 8 9 9 9 9 10 9 7 9 9 8 7 6 8 9 8 8 6 8 7 6 8 7 11 10 8 8 6 5 8 7 7 5 6 7 7 7 6 6
13 11 12 12 12 12 11 10 10 9 9 9 9 8 9 10 10 10 9 10 9 9 9 8 9 6 9 9 9 9 9 9 8 8 8 6 6 9 9 8 8 5 7 6 6 6 6 6 7 7 6 6
13 13 12 10 10 10 11 11 10 9 9 9 9 9 10 10 11 10 10 10 9 9 9 9 9 10 9 9 9 8 8 8 7 8 9 8 5 9 10 9 10 8 6 7 6 6 6 5 6 6 6 5
14 13 12 10 11 11 11 10 10 9 9 9 9 10 11 10 9 11 11 10 8 8 8 7 8 10 10 9 9 8 7 7 8 8 8 9 6 5 9 9 9 9 8 8 7 7 6 5 5 4 5 4
11 11 11 11 9 10 12 12 11 10 10 9 9 9 10 10 10 10 11 10 10 9 9 8 9 9 9 10 11 10 10 8 8 10 9 8 9 8 6 7 9 10 10 8 8 7 7 5 4 4 4 5
10 11 10 13 13 12 13 13 12 12 11 11 10 11 11 10 10 11 11 11 10 10 9 9 9 10 9 11 12 12 12 12 11 9 9 10 9 11 9 4 7 9 13 11 6 7 6 6 4 4 4 5
14 15 14 15 17 15 12 12 13 13 12 12 11 12 12 11 10 11 12 11 12 11 12 10 10 11 11 11 11 12 12 12 10 10 9 9 8 6 10 6 8 11 13 6 9 8 4 4 5 3 4 4
13 14 15 14 14 16 12 11 12 11 10 11 11 12 12 11 11 12 11 12 12 11 11 11 11 12 10 11 11 10 9 9 9 10 12 12 11 9 4 6 5 10 10 8 9 8 8 3 4 1 2 2
13 12 14 13 10 11 11 9 9 11 10 10 12 12 12 11 11 12 12 12 12 11 11 12 12 11 11 10 10 12 11 11 12 10 11 11 11 11 10 7 8 3 8 12 14 9 6 5 6 3 6 3
17 11 9 11 10 9 9 6 8 9 11 11 11 11 12 13 13 14 14 14 14 12 13 12 11 12 11 11 11 10 12 12 13 12 12 12 11 13 12 9 6 2 5 13 11 10 7 3 4 7 4 6
14 17 13 12 13 13 14 13 14 16 17 16 16 16 14 14 14 14 14 13 14 13 12 12 12 12 12 11 11 10 11 12 11 12 12 13 13 12 11 11 10 6 1 6 9 10 5 5 7 9 6 8
12 14 18 18 16 15 17 19 17 18 17 16 14 13 14 13 12 13 13 12 12 12 12 12 12 12 11 11 11 9 9 10 12 11 11 10 11 13 12 12 12 13 9 2 2 6 4 4 2 12 12 10
Wind_Direction
217 228 238 236 213 166 151 152 153 156 170 201 213 217 218 226 219 213 195 196 188 188 164 156 145 137 128 111 111 130 140 136 135 145 146 140 142 141 141 143 139 127 121 121 119 116 108 105 102 108 108 109
231 227 235 228 199 149 145 147 150 156 152 193 221 212 225 220 214 220 206 188 174 176 180 162 155 134 128 126 138 121 122 127 128 130 136 138 139 141 150 152 141 120 121 123 124 119 112 105 104 111 108 109
232 229 224 213 196 159 148 141 147 149 163 183 207 208 243 219 217 231 217 178 177 180 181 170 164 141 137 137 136 124 122 117 119 131 138 142 141 143 144 137 128 140 144 137 128 122 117 113 112 108 105 104
206 223 207 198 187 161 149 147 153 154 165 171 179 194 214 217 202 197 168 176 187 188 181 172 162 145 135 120 122 131 131 129 135 141 141 144 151 156 150 145 149 156 145 144 138 136 123 120 112 104 103 98
192 203 186 177 167 159 157 159 162 162 127 44 271 183 188 173 175 183 177 128 338 3 197 195 158 146 134 128 137 131 132 131 138 145 147 150 152 152 151 150 149 149 148 142 134 126 123 117 107 113 106 97
206 191 170 165 165 162 163 166 167 123 127 205 200 189 159 153 143 158 146 116 94 40 305 256 171 146 135 134 140 159 139 124 131 141 147 149 153 152 146 143 140 138 137 134 125 126 120 113 117 117 109 106
172 177 163 162 164 167 166 169 157 150 164 178 182 180 170 158 146 146 155 137 144 97 207 238 188 141 136 128 135 160 135 123 120 128 140 144 148 147 141 135 133 129 131 128 124 122 118 119 117 112 106 105
167 172 165 155 162 164 165 163 161 163 166 172 182 178 167 169 156 159 155 142 135 122 142 172 308 129 125 120 124 136 128 115 117 103 109 123 124 126 122 117 121 121 115 118 110 97 110 116 122 114 114 112
165 172 152 153 160 163 162 162 164 168 169 176 183 176 167 164 153 145 140 144 140 123 135 156 162 151 132 116 123 130 118 104 106 103 109 103 102 106 113 114 119 120 116 113 109 110 112 117 108 102 100 112
160 167 156 158 164 162 166 164 168 171 173 180 180 173 168 152 153 147 147 136 140 127 287 183 188 143 134 111 113 106 94 85 98 105 110 116 118 116 117 120 119 122 124 117 107 99 97 103 102 95 91 93
155 176 162 159 164 167 175 170 166 178 180 183 178 176 167 162 171 165 158 148 155 146 163 235 187 153 142 140 131 117 109 108 105 104 102 101 105 105 108 110 110 115 121 122 122 115 110 102 95 94 92 82
169 170 163 166 164 176 182 171 176 181 185 175 184 182 179 179 171 170 161 159 152 165 165 227 173 148 137 133 137 123 115 116 117 119 115 111 104 101 99 102 100 104 107 111 115 114 105 99 96 94 90 91
180 169 167 164 172 179 182 187 181 181 174 183 182 187 181 174 174 173 165 170 161 157 170 217 160 150 143 132 140 133 125 130 138 129 127 125 118 113 109 108 107 107 101 104 107 111 107 102 99 99 97 90
181 179 172 173 179 179 174 197 185 175 182 182 176 182 184 185 180 177 168 174 161 157 171 191 144 139 139 134 137 157 136 138 132 133 125 126 128 124 119 115 119 117 108 103 107 111 110 102 105 106 104 94
187 180 182 177 178 175 182 184 181 186 182 180 183 180 177 185 182 174 162 168 163 163 168 169 155 139 135 139 150 134 138 135 132 127 130 139 138 132 123 119 123 118 113 110 106 111 109 111 104 98 95 95
188 187 187 179 176 182 181 175 178 186 189 187 187 180 181 182 176 166 173 164 171 164 155 197 141 141 144 155 155 130 121 116 126 127 123 116 110 112 116 116 114 119 117 111 113 114 110 112 107 103 96 92
186 184 185 183 182 180 179 176 177 180 186 191 188 183 183 181 172 163 166 167 167 172 160 177 155 153 159 163 151 120 123 115 114 114 114 110 107 104 104 108 108 108 115 120 119 115 118 115 104 101 97 94
195 189 186 184 184 179 179 180 179 184 183 180 179 185 191 176 158 162 166 163 172 182 165 176 157 156 153 145 136 126 134 126 126 122 116 124 120 129 133 134 137 128 114 114 121 118 124 109 111 108 93 90
196 193 190 187 187 183 180 181 185 182 179 177 180 175 181 179 176 174 178 173 173 161 186 170 165 160 161 154 145 135 123 102 106 127 134 137 127 127 123 120 130 130 127 130 128 132 128 115 107 94 100 93
191 189 188 186 187 186 183 180 183 182 180 176 173 178 183 186 179 174 183 180 176 170 178 172 160 159 151 149 141 131 134 120 117 117 123 142 140 133 129 126 112 120 127 129 126 129 117 118 112 102 100 95
189 185 188 188 183 184 183 182 184 182 177 174 171 177 185 185 174 176 182 191 186 179 173 170 152 157 160 150 142 148 152 152 145 142 136 139 141 131 134 129 123 119 122 117 114 103 99 103 111 109 106 106
197 192 188 187 185 180 184 186 186 180 176 180 177 176 186 185 172 175 178 188 192 183 174 171 160 159 164 148 145 145 151 157 145 136 140 139 140 138 136 141 139 134 118 116 108 93 88 77 84 101 105 109
195 192 188 182 183 185 186 187 187 180 179 180 177 182 183 183 175 172 175 182 181 174 166 167 159 161 160 143 139 142 146 139 146 145 154 144 132 135 143 142 137 131 124 110 96 83 61 68 79 76 84 87
190 184 182 177 179 190 191 188 185 184 180 175 179 184 182 183 178 171 171 177 178 173 167 166 161 159 161 151 149 152 149 152 160 160 147 140 135 124 103 116 131 127 113 92 88 89 66 54 65 72 80 79
189 184 184 185 186 192 189 185 182 182 179 177 181 184 184 184 181 175 168 174 175 175 169 168 163 155 172 159 159 160 167 166 163 163 158 143 140 136 130 116 134 135 123 113 70 66 81 65 41 64 81 82
202 196 191 189 189 187 185 180 181 185 181 180 181 181 184 184 183 180 175 175 178 175 174 168 155 159 171 168 161 163 161 163 162 158 149 150 131 144 139 142 160 153 126 130 143 132 105 51 35 31 63 70
215 206 198 197 197 189 187 190 185 180 180 175 177 181 185 185 182 181 180 178 178 178 177 172 165 172 169 167 158 147 151 150 157 164 164 162 150 148 130 119 184 168 148 125 123 111 96 139 103 354 41 37
226 223 214 210 202 197 190 184 180 173 171 179 178 184 186 189 183 180 182 181 180 180 181 176 174 172 171 168 161 159 156 161 170 175 170 164 155 149 141 147 183 213 139 138 138 149 160 163 125 126 253 175
219 225 225 205 202 188 184 163 176 169 180 186 185 183 189 192 185 185 183 182 182 182 181 179 177 175 172 166 170 165 163 166 177 180 178 165 155 160 156 155 148 206 174 154 160 126 121 108 175 201 156 131
212 211 213 207 196 191 186 190 179 181 179 182 189 193 187 187 188 187 185 183 182 182 180 180 179 176 169 170 171 176 173 175 174 178 176 177 167 161 154 152 149 151 280 180 157 161 132 153 167 150 176 144
219 219 204 209 216 207 197 193 193 188 185 187 189 184 183 183 186 186 186 183 184 182 181 179 178 176 172 171 173 175 164 167 177 181 185 174 170 170 154 151 165 168 169 124 206 174 123 112 134 146 147 185